CAPE
4 20 19 14 11 11 18 18 40 34 58 84 62 50 88 59 28 19 18 15 0 0
12 3 29 43 28 26 20 22 18 1 13 23 30 37 92 42 21 2 17 6 0 0
0 0 0 0 12 23 26 12 19 48 38 46 53 120 137 73 36 7 1 0 0 0
0 0 0 0 0 0 0 0 3 6 46 61 68 48 37 4 0 0 0 0 0 0
0 0 0 0 0 0 0 0 0 0 0 1 0 0 0 0 0 0 0 0 0 0
0 0 0 0 0 0 0 0 0 0 0 0 0 0 0 0 0 0 0 0 0 0
0 0 0 0 0 0 0 0 0 0 0 0 0 0 0 0 0 0 0 0 0 0
0 0 0 0 0 0 0 0 0 0 0 0 0 0 0 0 0 0 0 0 0 0
0 0 0 0 0 0 0 0 0 0 0 0 0 0 0 0 0 0 0 0 0 0
0 0 0 0 0 0 0 0 0 0 0 0 0 0 0 0 0 0 0 0 0 0
0 0 0 0 0 0 0 0 0 0 0 0 0 0 0 0 0 0 0 0 0 0
0 0 0 0 0 0 0 0 0 0 0 0 0 0 0 0 0 0 0 0 0 0
0 0 0 0 0 0 0 0 0 0 0 0 0 0 0 0 0 0 0 0 0 0
0 0 0 0 0 1 1 0 0 0 0 0 0 0 0 0 0 0 0 0 0 0
CIN
-129 -58 -73 -77 -94 -77 -67 -35 -20 -21 -19 -54 -56 -87 -91 -101 -53 -73 -91 -85 0 0
-15 -17 -42 -33 -56 -59 -81 -71 -55 -29 -73 -85 -73 -80 -69 -56 -61 -39 -84 -92 0 0
0 0 0 0 -102 -98 -91 -98 -112 -105 -120 -106 -116 -81 -47 -44 -70 -83 0 0 0 0
0 0 0 0 0 0 0 0 -29 -31 -65 -54 -39 -51 -55 -34 0 0 0 0 0 0
0 0 0 0 0 0 0 0 0 0 0 -11 0 0 0 0 0 0 0 0 0 0
0 0 0 0 0 0 0 0 0 0 0 0 0 0 0 0 0 0 0 0 0 0
0 0 0 0 0 0 0 0 0 0 0 0 0 0 0 0 0 0 0 0 0 0
0 0 0 0 0 0 0 0 0 0 0 0 0 0 0 0 0 0 0 0 0 0
0 0 0 0 0 0 0 0 0 0 0 0 0 0 0 0 0 0 0 0 0 0
0 0 0 0 0 0 0 0 0 0 0 0 0 0 0 0 0 0 0 0 0 0
0 0 0 0 0 0 0 0 0 0 0 0 0 0 0 0 0 0 0 0 0 0
0 0 0 0 0 0 0 0 0 0 0 0 0 0 0 0 0 0 0 0 0 0
0 0 0 0 0 -1 -1 -1 0 0 -1 -1 0 0 0 0 0 0 0 0 0 0
0 0 0 0 0 -4 -3 -2 -2 -1 0 0 0 0 0 0 0 0 0 0 0 0
Wind_Speed
13 19 21 28 28 26 16 19 16 20 26 23 19 20 25 13 21 10 8 7 11 16
19 17 28 30 30 32 27 5 17 19 15 23 30 17 14 15 16 13 14 14 14 14
14 18 22 24 25 26 19 19 18 12 7 8 8 9 11 13 14 13 14 15 16 14
12 15 11 8 11 12 13 15 17 20 20 17 18 21 19 20 20 20 18 19 18 18
15 13 14 15 16 19 19 21 20 21 21 21 21 21 21 21 22 22 22 22 21 21
17 19 19 21 22 23 24 23 23 23 22 23 24 23 22 22 22 22 21 20 21 22
20 21 23 24 25 26 26 27 26 24 24 24 23 22 23 23 24 24 23 22 22 22
24 25 26 27 27 27 28 28 28 27 26 24 23 23 23 23 23 23 22 22 22 23
26 27 28 29 30 29 29 29 28 27 28 27 26 25 25 24 24 24 24 24 22 23
27 29 29 30 30 31 31 29 28 26 25 25 26 26 27 26 26 25 24 24 24 23
29 30 32 33 33 33 33 34 33 33 31 31 29 27 27 26 26 26 26 26 25 24
30 32 33 34 35 36 36 36 36 35 34 33 32 31 29 28 27 28 27 27 26 26
33 34 35 34 36 36 36 37 36 36 34 33 34 32 31 29 29 30 29 28 28 27
35 36 35 37 38 39 38 38 38 38 37 36 34 34 32 30 30 31 31 30 30 30
Wind_Direction
263 267 257 247 261 268 281 279 287 278 268 277 282 279 280 282 284 284 269 231 282 282
265 273 242 238 251 247 228 170 185 195 205 203 216 207 220 280 283 281 268 269 272 281
282 267 260 260 259 242 226 199 197 197 215 234 249 254 269 280 284 276 277 271 274 276
325 313 1 38 346 338 324 315 307 300 296 295 294 293 290 290 289 285 283 279 276 276
24 359 352 338 331 317 316 307 308 303 300 298 296 297 294 291 290 286 283 279 277 277
324 316 317 315 311 307 307 307 306 304 304 300 297 295 293 290 287 284 281 276 276 276
323 320 318 314 311 311 309 308 308 309 306 304 302 298 295 293 290 287 284 279 276 274
328 326 325 322 320 319 315 312 309 307 306 305 303 300 297 293 289 286 283 282 280 278
328 327 325 322 320 320 317 314 313 312 308 304 302 299 296 293 289 287 284 281 279 280
337 332 331 330 328 324 321 320 318 315 311 306 303 300 297 293 289 285 282 280 280 280
334 330 327 325 323 322 320 316 313 311 308 304 302 299 296 293 290 286 283 280 277 277
333 330 328 325 323 320 317 315 312 311 307 303 301 298 294 290 286 285 282 280 277 275
332 328 325 324 321 320 318 315 313 310 306 302 299 297 293 288 285 284 281 279 277 274
330 328 326 323 321 317 315 315 313 310 307 303 301 298 292 285 283 282 281 278 276 275